Find Starlink 4673

NORAD ID: 53589 Int'l Des: 2022-104 Owner: SPXS Country: US Constellation: starlink operational
LEOCIRCULAR

現在のビュー

3D地球を読み込み中...

About Starlink 4673

Starlink 4673 (NORAD 53589) is a starlink constellation satellite (v1.5) launched Aug 28, 2022 by SPXS of US. It operates in LEO, CIRCULAR orbit with a mass of 300.00 kg.

Starlink 4673について

説明を読み込み中...

次回通過

Passes for default location (London). Set your location on the main map for personalized predictions.

高度履歴

Loading altitude history...

軌道要素

1 53589U 22104B 26175.25002315 .00106680 00000-0 48363-2 0 9995
2 53589 53.1591 125.4097 0001377 40.9486 1.4245 15.19991444 5742
Epoch: Jun 24, 2026 • Age: 11 hours

現在のステータス

高度 508.5 km
速度 7.62 km/s
衛星直下点 41.21°N, 5.38°W
打ち上げ日 Aug 28, 2022
運用期間 3.8 years
タイプ internet

技術仕様

分類 Payload
質量 300.00 kg
乾燥質量 290.00 kg
総質量 300.00 kg
長さ 0.20 m
直径 2.80 m
スパン 9.00 m
形状 Box + pan
製造者 SPXS
バスタイプ Starlink
フェーズステータス In Orbit
所有者/国 SPXS/US

Most Searched